Mexicali, Mexico

7:11 PM PDT on August 28, 2016 (GMT -0700)
Gen Rodolfo Sanchez Taboada

Weather History for MMML - June, 2013

Change the Weather History Date:

Sunday, June 23, 2013

  Actual Average Record
Temperature  
Mean Temperature 86 °F -  
Max Temperature 100 °F 103 °F 111 °F (2008)
Min Temperature 73 °F 74 °F 66 °F (1998)
Cooling Degree Days 22    
Growing Degree Days 36 (Base 50)    
Moisture  
Dew Point 43 °F    
Average Humidity 24    
Maximum Humidity 53    
Minimum Humidity 9    
Precipitation  
Precipitation 0.00 in - - ()
Sea Level Pressure  
Sea Level Pressure 29.65 in    
Wind  
Wind Speed 4 mph ()    
Max Wind Speed 15 mph    
Max Gust Speed -    
Visibility 10.0 miles    
Events      
Averages and records for this station are not official NWS values.
T = Trace of Precipitation, MM = Missing Value Source: Averaged Metar Reports

Daily Weather History Graph

Daily Weather History Graph

Search for Another Location

Airport or City:

Trip Planner

Search our weather history database for the weather conditions in past years. The results will help you decide how hot, cold, wet, or windy it might be!

Date:

Astronomy

Jun. 23, 2013 Rise Set
Actual Time 5:34 AM PDT 7:52 PM PDT
Civil Twilight 5:05 AM PDT 8:20 PM PDT
Nautical Twilight 4:30 AM PDT 8:55 PM PDT
Astronomical Twilight 3:52 AM PDT 9:33 PM PDT
Moon 8:13 PM PDT (6/23) 5:52 AM PDT (6/23)
Length of Visible Light 15h 15m
Length of Day
14h 17m
Full, 100% of the Moon is Illuminated
Jun 23
Full
Jun 29
Last Quarter
Jul 8
New
Jul 15
First Quarter
Jul 22
Full

Hourly Weather History & Observations

Time (PDT) Temp. Heat Index Dew Point Humidity Pressure Visibility Wind Dir Wind Speed Gust Speed Precip Events Conditions
12:44 AM 82.4 °F 81.7 °F 55.4 °F 39% 29.67 in 10.0 mi East 6.9 mph - N/A   Clear
5:40 AM 73.4 °F - 53.6 °F 50% 29.69 in 10.0 mi ESE 5.8 mph - N/A   Clear
6:40 AM 73.4 °F - 55.4 °F 53% 29.69 in 10.0 mi Calm Calm - N/A   Clear
7:47 AM 78.8 °F - 59.0 °F 51% 29.72 in 10.0 mi Calm Calm - N/A   Clear
8:46 AM 82.4 °F 82.5 °F 59.0 °F 45% 29.71 in 10.0 mi East 8.1 mph - N/A   Clear
9:47 AM 86.0 °F 84.5 °F 55.4 °F 35% 29.71 in 10.0 mi Calm Calm - N/A   Clear
10:48 AM 91.4 °F - 48.2 °F 23% 29.71 in 10.0 mi Calm Calm - N/A   Clear
11:50 AM 93.2 °F - 41.0 °F 16% 29.69 in 10.0 mi South 5.8 mph - N/A   Clear
12:50 PM 96.8 °F - 37.4 °F 13% 29.67 in 10.0 mi SE 6.9 mph - N/A   Clear
1:47 PM 98.6 °F - 35.6 °F 11% 29.66 in 10.0 mi SSW 6.9 mph - N/A   Clear
2:43 PM 100.4 °F - 37.4 °F 11% 29.63 in 10.0 mi SSW 4.6 mph - N/A   Clear
3:45 PM 100.4 °F - 37.4 °F 11% 29.60 in 10.0 mi ESE 6.9 mph - N/A   Partly Cloudy
4:46 PM 100.4 °F - 37.4 °F 11% 29.62 in 10.0 mi ESE 4.6 mph - N/A   Mostly Cloudy
5:45 PM 100.4 °F - 37.4 °F 11% 29.57 in 10.0 mi Calm Calm - N/A   Mostly Cloudy
6:43 PM 100.4 °F - 30.2 °F 9% 29.57 in 10.0 mi West 12.7 mph - N/A   Mostly Cloudy
7:40 PM 93.2 °F - 35.6 °F 13% 29.62 in 10.0 mi NW 15.0 mph - N/A   Mostly Cloudy
8:42 PM 89.6 °F - 35.6 °F 15% 29.61 in 10.0 mi WNW 5.8 mph - N/A   Mostly Cloudy
9:44 PM 86.0 °F - 35.6 °F 17% 29.64 in 10.0 mi WSW 4.6 mph - N/A   Scattered Clouds
10:41 PM 84.2 °F - 37.4 °F 19% 29.67 in 10.0 mi Calm Calm - N/A   Scattered Clouds
11:41 PM 84.2 °F - 35.6 °F 18% 29.65 in 10.0 mi Calm Calm - N/A   Partly Cloudy